Regional Weather Roundup
Issued by NWS Sioux Falls, SD

Home | Current Version | Previous Version | Graphics & Text | Print | Product List | Glossary On
Versions: 1 2 3 4 5 6 7 8 9 10 11 12 13 14 15 16 17 18 19 20 21 22 23 24 25 26 27 28 29 30 31 32 33 34 35 36 37 38 39 40 41 42 43 44 45 46 47 48 49 50
659
ASUS43 KFSD 240202
RWRFSD

WEATHER ROUNDUP FOR SE SOUTH DAKOTA/SW MINNESOTA/NW IOWA
NATIONAL WEATHER SERVICE SIOUX FALLS SD
800 PM CST THU NOV 23 2017

NOTE: "FAIR" INDICATES FEW OR NO CLOUDS BELOW 12,000 FEET WITH NO
SIGNIFICANT WEATHER AND OR OBSTRUCTIONS TO VISIBILITY.


SDZ038>040-050-052>070-240300-
SOUTHEAST SOUTH DAKOTA

CITY           SKY/WX    TMP DP  RH WIND       PRES   REMARKS
BROOKINGS      PTCLDY    47  37  68 S12       29.65F
CHAMBERLAIN    CLEAR     54  41  62 SW6       29.65F
HURON          PTCLDY    51  41  68 S9        29.60F
MADISON        FAIR      48  39  71 S10       29.66F
MITCHELL       MOCLDY    56  42  59 S9        29.65F
SIOUX FALLS    CLOUDY    56  41  57 S12       29.67F
WINNER         FAIR      59  40  49 SW9       29.67F
YANKTON        MOCLDY    60  42  51 SW9       29.69F
$$

MNZ071-072-080-081-089-090-097-098-240300-
SOUTHWEST MINNESOTA

CITY           SKY/WX    TMP DP  RH WIND       PRES   REMARKS
FAIRMONT       CLOUDY    41  31  67 S13       29.73F
JACKSON        CLEAR     43  32  65 S12       29.72F
MARSHALL       PTCLDY    54  38  54 SW18      29.61F
MONTEVIDEO     CLEAR     45  34  65 SW9       29.61F
PIPESTONE      MOCLDY    46  36  66 S10       29.67F
REDWOOD FALLS  CLEAR     42  30  62 S12       29.64F
WINDOM         CLEAR     46  30  53 S12       29.69F
WORTHINGTON    CLOUDY    46  34  62 S14       29.70F
$$

IAZ001>003-012>014-020>022-031-032-NEZ013-014-SDZ071-240300-
NORTHWEST IOWA

CITY           SKY/WX    TMP DP  RH WIND       PRES   REMARKS
CHEROKEE       PTCLDY    48  36  61 S6        29.75F
DENISON        CLOUDY    52  37  58 S9        29.80F
ESTHERVILLE    CLEAR     38  31  76 S10       29.73F
LE MARS        MOCLDY    54  39  58 S16       29.73F
ORANGE CITY    MOCLDY    52  39  62 S12       29.73F
SHELDON        MOCLDY    48  36  61 S12       29.71F
SIOUX CITY     CLOUDY    47  38  71 SE8       29.75F
SPENCER        CLOUDY    41  32  70 S8        29.74F
STORM LAKE     PTCLDY    48  36  61 S12       29.76F
$$

ABBREVIATIONS USED IN REMARKS
   TC - TEMPERATURE IN CELSIUS
  WCI - WIND CHILL INDEX
   HX - HEAT INDEX
  VSB - VISIBILITY





USA.gov is the U.S. government's official web portal to all federal, state and local government web resources and services.